Location: Unspecified
(0.0000°N, 0.0000°E)
Time: 06:03:49
(UTC+00:00)

Tiros 1 - Pass Details

Date: 08 October 2020
Orbit: 630 x 663 km, 48.4° (Epoch: 28 October)

Event Time Altitude Azimuth Distance (km) Brightness Sun altitude
Rises 19:23:44 0° 326° (NW) 2,974 10.9 -23.9°
Reaches altitude 10° 19:26:05 10° 329° (NNW) 2,067 10.0 -24.5°
Enters shadow 19:29:38 47° 350° (N) 867 7.7 -25.4°
Maximum altitude 19:30:49 67° 51° (NE) 716 - -25.7°
Drops below altitude 10° 19:35:35 10° 134° (SE) 2,074 - -26.9°
Sets 19:37:57 0° 136° (SE) 2,986 - -27.5°
